FW0468 Weather Reports


Display with metric or nautical units.
time (UTC)temp
F
wind
direction
speed
MPH
gust
MPH
rain 1hr
in
rain 24hr
in
rain mn
in
humidity
%
barometer
mb
20260906124512 75 360 2.0 3.0 0.00 0.00 0.00 91 1013.9
20260906123023 74 360 0.0 0.0 0.00 0.00 0.00 91 1013.8
20260906121534 74 360 1.0 2.0 0.00 0.00 0.00 90 1013.7
20260906120009 75 360 0.0 0.0 0.00 0.00 0.00 90 1013.7
20260906114517 75 360 0.0 0.0 0.00 0.00 0.00 90 1013.5
20260906113020 75 360 0.0 2.0 0.00 0.00 0.00 90 1013.6
20260906111530 75 360 0.0 2.0 0.00 0.00 0.00 90 1013.7
20260906110006 74 360 0.0 2.0 0.00 0.00 0.00 91 1013.7
20260906104509 74 360 0.0 2.0 0.00 0.00 0.00 91 1013.7
20260906103017 74 360 0.0 0.0 0.00 0.00 0.00 91 1013.3
20260906101529 74 360 0.0 0.0 0.00 0.00 0.00 91 1013.2
20260906100032 74 360 0.0 2.0 0.00 0.00 0.00 90 1013.2
20260906094507 74 360 1.0 2.0 0.00 0.00 0.00 90 1013.1
20260906093015 74 360 1.0 2.0 0.00 0.00 0.00 90 1013.1
20260906091525 74 360 0.0 2.0 0.00 0.00 0.00 91 1013.1
20260906090027 74 360 0.0 0.0 0.00 0.00 0.00 91 1013.3
20260906084528 74 360 0.0 1.0 0.00 0.00 0.00 91 1013.3
20260906083010 74 360 0.0 2.0 0.00 0.00 0.00 90 1013.3
20260906081521 75 360 0.0 0.0 0.00 0.00 0.00 90 1013.2
20260906080029 75 360 2.0 2.0 0.00 0.00 0.00 90 1013.0
20260906074527 75 360 1.0 2.0 0.00 0.00 0.00 91 1013.1
20260906073033 75 360 0.0 1.0 0.00 0.00 0.00 90 1013.1
20260906071524 75 360 0.0 1.0 0.00 0.00 0.00 90 1013.0
20260906070019 75 360 0.0 2.0 0.00 0.00 0.00 90 1012.7
20260906064530 76 360 0.0 2.0 0.00 0.00 0.00 90 1012.8
20260906063030 76 360 0.0 2.0 0.00 0.00 0.00 90 1012.7
20260906061533 76 360 3.0 4.0 0.00 0.00 0.00 90 1013.1
20260906060021 75 360 0.0 3.0 0.00 0.00 0.00 90 1013.9
20260906054504 75 360 2.0 2.0 0.00 0.00 0.00 90 1013.8
20260906053006 75 360 0.0 2.0 0.00 0.00 0.00 89 1013.8
20260906051514 75 360 0.0 2.0 0.00 0.00 0.00 89 1013.9
20260906050019 76 360 1.0 3.0 0.00 0.00 0.00 89 1013.7
20260906044523 75 360 0.0 1.0 0.00 0.00 0.00 88 1013.8
20260906043013 76 360 0.0 2.0 0.00 0.00 0.00 88 1013.9
20260906041508 76 360 0.0 2.0 0.00 0.00 0.00 88 1013.8
20260906040012 76 360 1.0 2.0 0.00 0.00 0.00 87 1013.9
20260906034533 77 360 1.0 2.0 0.00 0.00 0.00 87 1013.8
20260906033031 77 360 0.0 2.0 0.00 0.00 0.00 86 1014.0
20260906031510 77 360 1.0 2.0 0.00 0.00 0.00 86 1013.9
20260906030009 77 360 0.0 0.0 0.00 0.00 0.00 87 1013.9
20260906024519 77 360 0.0 0.0 0.00 0.00 0.00 87 1014.1
20260906023028 77 360 0.0 0.0 0.00 0.00 0.00 86 1013.7
20260906021537 77 360 0.0 0.0 0.00 0.00 0.00 85 1013.6
20260906020010 78 360 0.0 0.0 0.00 0.00 0.00 84 1013.3
20260906014511 78 360 0.0 0.0 0.00 0.00 0.00 84 1013.0
20260906013020 78 360 0.0 0.0 0.00 0.00 0.00 83 1012.8
20260906011523 79 360 0.0 2.0 0.00 0.00 0.00 82 1012.7
20260906010008 80 217 0.0 2.0 0.00 0.00 0.00 80 1012.4
20260906004512 80 217 1.0 2.0 0.00 0.00 0.00 78 1012.3
20260906003016 81 267 0.0 2.0 0.00 0.00 0.00 77 1012.4
20260906001541 82 284 1.0 3.0 0.00 0.00 0.00 76 1012.4
20260906000027 83 226 2.0 5.0 0.00 0.00 0.00 74 1012.6
20260905234509 83 242 2.0 9.0 0.00 0.00 0.00 72 1012.7
20260905233018 84 234 5.0 10.0 0.00 0.00 0.00 71 1012.8
20260905231527 84 221 5.0 8.0 0.00 0.00 0.00 72 1012.7
20260905230034 85 236 4.0 9.0 0.00 0.00 0.00 72 1012.7
20260905224532 86 226 5.0 11.0 0.00 0.00 0.00 70 1012.5
20260905223030 87 219 2.0 11.0 0.00 0.00 0.00 68 1012.5
20260905221522 87 241 5.0 13.0 0.00 0.00 0.00 69 1012.7
20260905220024 87 226 4.0 9.0 0.00 0.00 0.00 68 1012.5
20260905214510 88 204 7.0 11.0 0.00 0.00 0.00 67 1012.5
20260905213008 88 181 5.0 9.0 0.00 0.00 0.00 66 1012.7
20260905211520 88 189 7.0 9.0 0.00 0.00 0.00 66 1012.9
20260905210037 88 196 4.0 7.0 0.00 0.00 0.00 66 1012.8
20260905204530 87 194 3.0 8.0 0.00 0.00 0.00 66 1013.0
20260905203008 88 187 5.0 11.0 0.00 0.00 0.00 65 1013.1
20260905201521 88 187 6.0 10.0 0.00 0.00 0.00 65 1013.3
20260905200023 88 261 7.0 11.0 0.00 0.00 0.00 66 1013.3
20260905194526 88 213 4.0 13.0 0.00 0.00 0.00 67 1013.5
20260905193035 89 234 6.0 11.0 0.00 0.00 0.00 64 1013.5
20260905191511 88 140 5.0 10.0 0.00 0.00 0.00 66 1013.5
20260905190018 88 167 2.0 12.0 0.00 0.00 0.00 68 1013.9
20260905184534 88 201 5.0 9.0 0.00 0.00 0.00 68 1014.1
20260905183037 87 205 4.0 9.0 0.00 0.00 0.00 68 1014.4
20260905181535 86 187 4.0 11.0 0.00 0.00 0.00 70 1014.8
20260905180012 86 192 6.0 12.0 0.00 0.00 0.00 71 1015.0
20260905174522 84 148 5.0 12.0 0.00 0.00 0.00 73 1015.2
20260905173040 83 206 4.0 9.0 0.00 0.00 0.00 74 1015.3
20260905171529 84 218 7.0 13.0 0.00 0.00 0.00 72 1015.4
20260905170013 87 155 6.0 16.0 0.00 0.00 0.00 70 1015.4
20260905164521 87 223 8.0 14.0 0.00 0.00 0.00 69 1015.5
20260905163024 87 180 6.0 13.0 0.00 0.00 0.00 70 1015.6
20260905161527 87 250 5.0 13.0 0.00 0.00 0.00 69 1015.7
20260905160029 87 216 4.0 10.0 0.00 0.00 0.00 68 1015.8
20260905154514 87 282 2.0 3.0 0.00 0.00 0.00 66 1015.6
20260905153028 87 255 3.0 6.0 0.00 0.00 0.00 67 1015.4
20260905151527 86 213 1.0 3.0 0.00 0.00 0.00 70 1015.4
20260905150030 85 352 0.0 4.0 0.00 0.00 0.00 71 1015.4
20260905144542 84 350 1.0 4.0 0.00 0.00 0.00 71 1015.4
20260905143030 84 352 0.0 2.0 0.00 0.00 0.00 73 1015.5
20260905141525 84 302 1.0 4.0 0.00 0.00 0.00 74 1015.4
20260905140033 82 337 2.0 4.0 0.00 0.00 0.00 77 1015.5
20260905134537 80 352 1.0 3.0 0.00 0.00 0.00 80 1015.4
20260905133035 80 344 1.0 3.0 0.00 0.00 0.00 79 1015.5
20260905131521 79 341 0.0 2.0 0.00 0.00 0.00 82 1015.5
20260905130004 78 360 1.0 4.0 0.00 0.00 0.00 83 1015.5